AirNav   Jet Aviation Boston
 
 1094 users online  

KGPM Grand Prairie Municipal Airport
Grand Prairie, Texas, USA

GOING TO GRAND PRAIRIE?


FAA INFORMATION EFFECTIVE 21 JUNE 2018

Location

FAA Identifier: GPM
Lat/Long: 32-41-55.6000N / 097-02-48.9000W
32-41.926667N / 097-02.815000W
32.6987778 / -97.0469167
(estimated)
Elevation: 588.4 ft. / 179.3 m (surveyed)
Variation: 06E (2000)
From city: 4 miles SW of GRAND PRAIRIE, TX
Time zone: UTC -5 (UTC -6 during Standard Time)
Zip code: 75052

Airport Operations

Airport use: Open to the public
Activation date: 06/1968
Control tower: yes
ARTCC: FORT WORTH CENTER
FSS: FORT WORTH FLIGHT SERVICE STATION
NOTAMs facility: GPM (NOTAM-D service available)
Attendance: MON-SAT 0700-2000, ALL SUN 0700-1900
Pattern altitude: 1200.4 ft. MSL
TPA: 812 FT AGL FIXED WING, 612 FT AGL ROTARY WING.
Wind indicator: lighted
Segmented circle: yes
Lights: MIRL RY 17/35 PRESET LOW INTST; TO INCR INTST & ACTVT REIL RY 35 AFT ATCT CLOSE - CTAF. VASI RYS 17 & 35 OPERS CONTINUOSLY.
Beacon: white-green (lighted land airport)
Operates sunset to sunrise.

Airport Communications

CTAF: 128.55
UNICOM: 122.8
WX AWOS-3P: 118.475 (972-606-1433)
GRAND PRAIRIE GROUND: 121.15 [0700-2100 DALGT TIME; 0800-1800 STANDARD TIME]
GRAND PRAIRIE TOWER: 128.55 [0700-2100 DALGT TIME; 0800-1800 STANDARD TIME]
REGIONAL APPROACH: 135.975
REGIONAL DEPARTURE: 135.975
DODJE STAR: 125.2 125.9
KNEAD STAR: 135.975
LIKES STAR: 125.8(SOUTH) 135.975(NORTH)
MOTZA STAR: 118.1(SOUTH) 125.8(NORTH)
REEKO STAR: 125.2
SANGR STAR: 124.3
SASIE STAR: 124.3
SLUGG STAR: 125.8(SOUTH) 135.975(NORTH)
SWVAY STAR: 135.975
WESAT STAR: 118.1(SOUTH) 125.8(NORTH)
WX ASOS at GKY (3 nm SW): 127.375 (817-557-0251)
WX ASOS at RBD (9 nm E): PHONE 214-330-5317
WX ASOS at DFW (12 nm N): PHONE 972-615-2608
WX AWOS-3 at 49T (13 nm E): 135.425 (214-670-1243)
WX ASOS at DAL (13 nm NE): PHONE 214-353-1551
WX AWOS-3 at FWS (15 nm SW): 120.025 (817-426-4172)
WX AWOS-3 at JWY (16 nm SE): 119.575 (972-937-4747)
WX ASOS at FTW (17 nm NW): PHONE 817-740-3346
WX AWOS-3 at LNC (18 nm SE): 118.975 (972-227-0471)
WX AWOS-3 at ADS (19 nm NE): PHONE 972-386-4855

Nearby radio navigation aids

VOR radial/distance  VOR name  Freq  Var
TTTr176/10.2MAVERICK VOR/DME113.1006E
FUZr144/13.2RANGER VORTAC115.7006E
CVEr206/13.6COWBOY VOR/DME116.2006E

 
NDB name  Hdg/Dist  Freq  Var  ID
MESQUITE253/27.024803EPQF .--. --.- ..-.

Airport Services

Fuel available: 100LL JET-A
Parking: hangars and tiedowns
Airframe service: MAJOR
Powerplant service: MAJOR
Bottled oxygen: NONE
Bulk oxygen: HIGH/LOW

Runway Information

Runway 17/35

Dimensions: 4001 x 75 ft. / 1220 x 23 m
Surface: concrete, in good condition
Weight bearing capacity: 
Single wheel: 30.0
Runway edge lights: medium intensity
RUNWAY 17  RUNWAY 35
Latitude: 32-42.256870N32-41.597050N
Longitude: 097-02.812673W097-02.817323W
Elevation: 581.5 ft.572.8 ft.
Gradient: 0.5%0.5%
Traffic pattern: leftright
Runway heading: 174 magnetic, 180 true354 magnetic, 000 true
Markings: nonprecision, in good conditionnonprecision, in good condition
Visual slope indicator: 4-box VASI on left (3.00 degrees glide path)4-box VASI on left (4.00 degrees glide path)
Runway end identifier lights: yes
Touchdown point: yes, no lightsyes, no lights
Obstructions: 25 ft. trees, 824 ft. from runway, 145 ft. right of centerline, 24:1 slope to clear21 ft. road, 630 ft. from runway, 20:1 slope to clear

Airport Ownership and Management from official FAA records

Ownership: Publicly-owned
Owner: CITY OF GRAND PRAIRIE
PO BOX 534045
GRAND PRAIRIE, TX 75053-4045
Phone 972-237-8015
Manager: MARK DIVITA
3116 S GT SOUTHWEST PKWY
GRAND PRAIRIE, TX 75052-7238
Phone (972) 237-7593

Airport Operational Statistics

Aircraft based on the field: 237
Single engine airplanes: 218
Multi engine airplanes: 16
Jet airplanes: 1
Helicopters: 2
    
Aircraft operations: avg 180/day *
49% local general aviation
33% transient general aviation
18% military
<1% air taxi
* for 12-month period ending 31 December 2015

Additional Remarks

EXTENSIVE HELICOPTER TRAFFIC WEST SIDE OF ARPT.
FOR CD WHEN ATCT IS CLSD CTC REGIONAL APCH AT 972-615-2799.
WEST GRASS FOR ROTARY WING USE ONLY.

Instrument Procedures

NOTE: All procedures below are presented as PDF files. If you need a reader for these files, you should download the free Adobe Reader.

NOT FOR NAVIGATION. Please procure official charts for flight.
FAA instrument procedures published for use from 21 June 2018 at 0901Z to 19 July 2018 at 0900Z.

 
STARs - Standard Terminal Arrivals
DODJE FIVE   2 pages: [1] [2] (753KB)
KNEAD SEVEN   2 pages: [1] [2] (446KB)
MOTZA EIGHT **CHANGED**   2 pages: [1] [2] (503KB)
REEKO THREE (RNAV)   download (198KB)
SASIE FIVE   2 pages: [1] [2] (489KB)
SWVAY FOUR (RNAV)   download (225KB)
TRUUK TWO (RNAV)   download (197KB)
WESAT TWO (RNAV)   download (190KB)
 
IAPs - Instrument Approach Procedures
RNAV (GPS) RWY 35   download (155KB)
VOR/DME RWY 35   download (171KB)
NOTE: Special Alternate Minimums apply   download (17KB)
 
Departure Procedures
DALLAS FOUR   2 pages: [1] [2] (523KB)
GARLAND SIX   2 pages: [1] [2] (342KB)
HUBBARD NINE   2 pages: [1] [2] (328KB)
JOE POOL NINE   2 pages: [1] [2] (526KB)
KINGDOM FOUR **CHANGED**   2 pages: [1] [2] (368KB)
KUSSO FIVE (RNAV)   2 pages: [1] [2] (281KB)
SWABR FIVE (RNAV)   2 pages: [1] [2] (280KB)
TEXOMA FIVE **CHANGED**   2 pages: [1] [2] (494KB)
WORTH ONE **CHANGED**   2 pages: [1] [2] (507KB)
NOTE: Special Take-Off Minimums/Departure Procedures apply   download

Other nearby airports with instrument procedures:

KGKY - Arlington Municipal Airport (3 nm SW)
KRBD - Dallas Executive Airport (9 nm E)
KDFW - Dallas-Fort Worth International Airport (12 nm N)
KDAL - Dallas Love Field Airport (13 nm NE)
KFWS - Fort Worth Spinks Airport (15 nm SW)
KJWY - Mid-Way Regional Airport (16 nm SE)
KFTW - Fort Worth Meacham International Airport (17 nm NW)
KLNC - Lancaster Regional Airport (18 nm SE)
KADS - Addison Airport (19 nm NE)
 
Loc | Ops | Rwys | IFR | FBO | Links
Com | Nav | Svcs | Stats | Notes

AirNav Hotels Sweepstakes
 
Area around KGPM (Grand Prairie Municipal Airport)
 
Road maps at: MapQuest Bing Google
 
Aerial photo
WARNING: Photo may not be current or correct
Aerial photo of KGPM (Grand Prairie Municipal Airport)
Do you have a better or more recent aerial photo of Grand Prairie Municipal Airport that you would like to share? If so, please send us your photo.

 
Sectional chart

 
Airport diagram
CAUTION: Diagram may not be current
Diagram of KGPM (Grand Prairie Municipal Airport)
Download PDF
of official airport diagram from the FAA

 
Airport distance calculator
Flying to Grand Prairie Municipal Airport? Find the distance to fly.

From to KGPM

Sunrise and sunset
Times for 23-Jun-2018
 Local
(UTC-5)
 Zulu
(UTC)
Morning civil twilight05:5410:54
Sunrise06:2211:22
Sunset20:3801:38
Evening civil twilight21:0702:07

Current date and time
Zulu (UTC)  23-Jun-2018 18:15:03
Local (UTC-5)  23-Jun-2018 13:15:03
 
METAR
KGPM 231750Z 13009G15KT 10SM SCT043 33/21 A2984
KGKY 
3nm SW 
231753Z 18010G16KT 10SM FEW049 34/22 A2982 RMK AO2 SLP087 T03440217 10344 20272 58014
KRBD 
9nm E 
231753Z 16015G20KT 10SM SCT045 SCT055 34/22 A2982 RMK AO2 SLP088 T03390217 10350 20278 58013
KDFW 
12nm N 
231753Z 13012G17KT 10SM FEW032 FEW040 BKN075 32/24 A2982 RMK AO2 SLP087 60002 T03220239 10322 20244 58014
KDAL 
13nm NE 
231753Z 11012G20KT 10SM SCT045TCU SCT075 SCT250 33/24 A2983 RMK AO2 SLP091 TCU SE MDT CU SW-SW 60000 T03280244 10328 20261 58013
KFWS 
15nm SW 
231748Z 14008G16KT 10SM SCT043 BKN048 34/21 A2985
KJWY 
16nm SE 
231755Z AUTO 12008G15KT 070V170 10SM SCT043 34/22 A2985 RMK AO2 T03360223 10340 20259
KFTW 
18nm NW 
231753Z 09011KT 10SM FEW038 SCT049 BKN060 32/24 A2981 RMK AO2 SLP084 T03170239 10322 20261 58015
KLNC 
18nm SE 
231755Z AUTO 13007G16KT 10SM BKN039 BKN050 32/23 A2985 RMK AO2 T03210232 10325 20260
KADS 
20nm NE 
231647Z 07010G15KT 10SM SCT029 SCT037 28/21 A2988
TAF
KGKY 
3nm SW 
231733Z 2318/2418 17017KT P6SM SCT050 BKN300 FM240400 17018KT P6SM VCTS BKN040CB OVC150 TEMPO 2406/2409 35015G25KT 4SM TSRA BKN025CB OVC060 FM241000 16014KT P6SM BKN022 BKN150 FM241600 17020KT P6SM SCT040
KDFW 
12nm N 
231733Z 2318/2424 10008KT P6SM BKN035 FM231930 17017KT P6SM SCT050 BKN300 FM240400 17018KT P6SM VCTS BKN040CB OVC150 TEMPO 2406/2409 35015G25KT 4SM TSRA BKN025CB OVC060 FM241000 16014KT P6SM BKN022 BKN150 FM241600 17020KT P6SM SCT040
KDAL 
13nm NE 
231733Z 2318/2418 10008KT P6SM BKN035 FM231900 17017KT P6SM SCT050 BKN300 FM240400 17018KT P6SM VCTS BKN040CB OVC150 TEMPO 2406/2409 35015G25KT 4SM TSRA BKN025CB OVC060 FM241000 16014KT P6SM BKN022 BKN150 FM241600 17018KT P6SM SCT040
KFTW 
18nm NW 
231733Z 2318/2418 10008KT P6SM BKN035 FM231900 17017KT P6SM SCT050 BKN300 FM240400 17018KT P6SM VCTS BKN040CB OVC150 TEMPO 2406/2409 35015G25KT 4SM TSRA BKN025CB OVC060 FM241000 16014KT P6SM BKN022 BKN150 FM241600 17018KT P6SM SCT040
NOTAMs
Click for the latest NOTAMs
NOTAMs are issued by the DoD/FAA and will open in a separate window not controlled by AirNav.

 

 
 

FBO, Fuel Providers, and Aircraft Ground Support

  
 Business Name 
 
 Contact 
 
 Services / Description 
 
Fuel Prices
 
Comments
  
 Aviator Air
972-988-8609
[web site]
[email]

Like us on facebook
Aviation fuel, Oxygen service, Aircraft parking (ramp or tiedown), GPU / Power cart, Pilot school (FAR Part 141), Aircraft rental, ...
 
Courtesy car   Enterprise Rent-A-Car  
 
More info about Aviator Air
Avfuel
100LL Jet A
FS $4.54 $4.34 
GUARANTEED
 
   5 read write
 City of Grand Prairie
972-237-7591
972-237-7592
[web site]
[email]
Airport management, Aviation fuel, Aircraft parking (ramp or tiedown), Hangar leasing / sales, Pilots lounge / snooze room, Public telephone, Internet access, ...

More info about City of Grand Prairie
Avfuel
100LL Jet A
SS $4.34 $4.14 
GUARANTEED
 
   1 read write
FS=Full service
SS=Self service
Update Fuel Prices
 

Where to Eat: Catering, Restaurants, Food shops

  
 Business Name 
 
 Contact 
 
 Services / Description 
 
Distance
 
Comments
  
 Radial Engine Cafe
972-595-5420 Restaurant

More info about Radial Engine Cafe
on airport  
   write
 

Would you like to see your business listed on this page?

 If your business provides an interesting product or service to pilots, flight crews, aircraft, or users of the Grand Prairie Municipal Airport, you should consider listing it here.  To start the listing process, click on the button below
 
Add a business
 

Other Pages about Grand Prairie Municipal Airport

www.gptx.org/...
 
Update a link
 
Copyright © AirNav, LLC. All rights reserved. Privacy Policy  Contact